Miscellaneous Local Product
Issued by NWS Hastings, NE

Home | Current Version | Previous Version | Text Only | Print | Product List | Glossary Off
Versions: 1 2 3 4 5 6 7 8 9 10 11 12 13 14 15 16 17 18 19 20 21 22 23 24 25 26 27 28 29 30 31 32 33 34 35 36 37 38 39 40 41 42 43 44 45 46 47 48 49 50

000
AXUS43 KGID 230002
MISGRI

GID CWA HOURLY WEATHER ROUNDUP
NATIONAL WEATHER SERVICE HASTINGS NE
700 PM CDT SUN OCT 22 2017

NOTE: "FAIR" INDICATES FEW OR NO CLOUDS BELOW 12,000 FEET WITH NO
SIGNIFICANT WEATHER AND/OR OBSTRUCTIONS TO VISIBILITY.

...SOUTH CENTRAL NEBRASKA...

CITY           SKY/WX    TMP DP  RH WIND       PRES   REMARKS
GRAND ISLAND   CLOUDY    59  32  36 S8        29.98F
KEARNEY        CLEAR     59  27  29 S10       29.99S
HASTINGS       CLEAR     61  27  27 S6        30.00F
ORD            PTCLDY    57  32  38 S7        29.92F
YORK           CLEAR     61  28  29 CALM      29.99F
AURORA         CLEAR     61  30  30 S3        29.99F
LEXINGTON      CLOUDY    62  29  28 SW7       29.97S
HOLDREGE       CLEAR     60  29  30 S8        29.98F
HEBRON         CLEAR     59  31  34 S7        30.03S

...NEBRASKA PANHANDLE...

CITY           SKY/WX    TMP DP  RH WIND       PRES   REMARKS
CHADRON        CLOUDY    67  26  21 NW12      29.90S
ALLIANCE       CLOUDY    56  29  35 SW8       29.96F
SCOTTSBLUFF    CLOUDY    64  29  26 W25G36    29.97F
SIDNEY         CLOUDY    59  28  30 NW8       30.03S

...WESTERN AND NORTH CENTRAL NEBRASKA...

CITY           SKY/WX    TMP DP  RH WIND       PRES   REMARKS
VALENTINE      CLEAR     59  32  36 S3        29.89S
AINSWORTH      CLEAR     55  36  48 S3        29.90F
ONEILL         CLOUDY    58  36  44 S7        29.92R
BROKEN BOW     CLOUDY    56  36  47 CALM      29.94S
IMPERIAL       CLOUDY    62  27  26 W7        30.00S
NORTH PLATTE   CLOUDY    61  35  37 SW6       29.96R
MCCOOK         PTCLDY    63  26  24 SW8       29.98F

...EASTERN NEBRASKA...

CITY           SKY/WX    TMP DP  RH WIND       PRES   REMARKS
NORFOLK        CLEAR     57  30  35 S9        29.94F
SO SIOUX CITY  CLEAR     58  31  35 S8        29.94F
TEKAMAH        CLEAR     57  29  34 S8        29.97S
COLUMBUS       CLEAR     58  32  37 S6        29.98S
ALBION         CLEAR     56  32  39 CALM      29.96S
OMAHA EPPLEY   PTCLDY    59  33  37 S8        30.00F
OFFUTT AFB     CLEAR     59  34  38 SE7       30.00F
MILLARD        CLEAR     62  33  33 SE3       30.00F
LINCOLN        CLEAR     56  34  43 S6        30.01F
NEBRASKA CITY  CLEAR     55  36  48 S7        30.04S
BEATRICE       CLEAR     58  33  38 S7        30.03S
FALLS CITY     CLEAR     60  33  36 S7        30.05S

...NORTHERN KANSAS...

CITY           SKY/WX    TMP DP  RH WIND       PRES   REMARKS
GOODLAND       CLOUDY    61  23  23 S7        30.05S
HILL CITY      CLEAR     64  25  22 S3        30.04F
NORTON         CLEAR     61  16  17 S9        30.00F
PHILLIPSBURG   CLEAR     64  23  20 S6        30.02F
SMITH CENTER   CLEAR     55  28  35 S7        30.03F
HAYS           CLEAR     63  24  22 S7        30.06R
RUSSELL        CLEAR     62  29  28 S6        30.04S
CONCORDIA      CLEAR     61  29  29 S6        30.05R
SALINA         CLEAR     63  36  36 S5        30.07S
TOPEKA         CLEAR     58  42  55 CALM      30.08S



USA.gov is the U.S. government's official web portal to all federal, state and local government web resources and services.